Location: Newark
(52.3500°N, 175.9667°E)
Time: 21:30:26
(UTC+00:00)

Transit 4A - Pass Details

Date: 23 April 2021
Orbit: 871 x 974 km, 66.8° (Epoch: 16 May)

Event Time Altitude Azimuth Distance (km) Brightness Sun altitude
Rises 15:15:28 0° 295° (WNW) 3,578 10.7 -14.2°
Reaches altitude 10° 15:18:45 10° 311° (NW) 2,615 10.2 -13.8°
Maximum altitude 15:23:09 20° 358° (N) 1,955 10.1 -13.3°
Drops below altitude 10° 15:27:29 10° 45° (NE) 2,566 11.7 -12.8°
Sets 15:30:40 0° 62° (ENE) 3,491 12.7 -12.4°
